Location: Cluj-Napoca
(46.7712°N, 23.6236°E)
Time: 18:56:04
(UTC+03:00)

ISS - Pass Details

Date: 23 May 2020
Orbit: 417 x 420 km, 51.6° (Epoch: 26 May)

Event Time Altitude Azimuth Distance (km) Brightness Sun altitude
Rises 21:42:58 0° 271° (W) 2,362 1.0 -6.3°
Reaches altitude 10° 21:45:10 10° 280° (W) 1,500 0.1 -6.6°
Maximum altitude 21:48:20 38° 350° (N) 658 -2.2 -7.0°
Drops below altitude 10° 21:51:31 10° 61° (ENE) 1,503 -1.1 -7.4°
Sets 21:53:43 0° 70° (ENE) 2,369 -0.2 -7.7°
